THOR ABLESTAR DEB, 126

Orbit data source: Space-Track

THOR ABLESTAR DEB, 126 is space debris in LEO originally from a launch on Thu, 29 Jun 1961 UTC launched from the Air Force Eastern Test Range (AFETR). Debris objects in space refer to the collection of defunct objects orbiting the Earth. Examples of debris include non-operational satellites, rocket bodies, and fragments generated from explosions, collisions, or faulty payload assembly.

Loading next visibility...
Identifier
126, 1961-015L
Orbit
LEO
Country
Flag of USUS
Related business
Manufacturer
Unknown
Mission
Spacecraft
Bus & Motor
Unknown
Mass
Unknown
Launch date (UTC)
1961-06-29 (65 years ago)
Launch vehicle
Unknown
Launch site
Air Force Eastern Test Range (AFETR)
Object type
Payload
Rocket body
Debris
Shape & HBR
Unknown shape, 0.4 m
Radar Cross Section
Medium (>0.1 m² and <1 m²)

Expand to show TLE details & history
Last TLE update: 15 hours ago

TLE from 15 hours ago
0 THOR ABLESTAR DEB
1 00126U 61015L   26112.07530813  .00001091  00000-0  33157-3 0  9994
2 00126  66.7082 244.0929 0065856 294.7275  64.6986 14.44737472356495
Epoch: 2026-04-22T01:48Z
TLE epoch observation values (Epoch: 2026-04-22T01:48:26.622Z)
Latitude
0.00004°
Longitude
6.84005°
Altitude
725.22 km
Speed
7.504 km/s
True Right ascension
16h 16m 22s
True Declination
0° 00' 00"
Sunlit
Object was in full shadow at epoch
Visualization orbit readout
Latitude
Unknown
Longitude
Unknown
Altitude
Unknown
Speed
Unknown
Apparent Right ascension
Unknown
Apparent Declination
Unknown
Sunlit
N/A
Visualization observer readout
Local Sidereal Time
23:55:43
Azimuth
Unknown
Elevation
Unknown
Doppler factor
Unknown
Orbital elements
Apogee altitude
788.137 km
Perigee altitude
694.366 km
Semi-major axis
7,119.388 km
Eccentricity
0.00659
Inclination
66.7082°
RAAN
244.0929°
Arg. of periapsis
294.7275°
True anomaly
65.38325°
Mean anomaly
64.6986°
Eccentric anomaly
65.04069°
Mean motion
3.61309 °/min
Orbital period
99.64 mins
BSTAR
0.00033157
Loading maneuver chart data...
Computing Atmospheric mass density...

Documentation

Showing up to 5 results
|